Weather Roundup
Issued by NWS Springfield, MO

Home | Current Version | Previous Version | Text Only | Print | Product List | Glossary On
Versions: 1 2 3 4 5 6 7 8 9 10 11 12 13 14 15 16 17 18 19 20 21 22 23 24 25 26 27 28 29 30 31 32 33 34 35 36 37 38 39 40 41 42 43 44 45 46 47 48 49 50
000
NZUS99 KSGF 281507
HRRSGF

HOURLY WEATHER
NATIONAL WEATHER SERVICE SPRINGFIELD MO
900 AM CST SUN DEC 28 2014

......SGF CWA......

CITY           SKY/WX    TMP DP  RH WIND       PRES   REMARKS
SPRINGFIELD    CLOUDY    27  22  81 CALM      30.23S
JOPLIN         PTSUNNY   24  22  91 CALM      30.27R
WEST PLAINS    CLOUDY    29  23  78 NW3       30.23R
ROLLA          CLOUDY    27  22  81 CALM      30.22R
OSAGE BEACH    CLOUDY    27  21  80 CALM      30.26R
BRANSON        CLOUDY    28  25  86 CALM      30.24R

......SURROUNDING SGF CWA......

CITY           SKY/WX    TMP DP  RH WIND       PRES   REMARKS
CHANUTE        SUNNY     23  20  88 SE3       30.27R
PARSONS        SUNNY     20  18  92 CALM      30.29R
COFFEYVILLE    SUNNY     21  19  92 CALM      30.29R
EMPORIA        SUNNY     22  18  85 SW3       30.22S
GROVE OK       CLOUDY    28  28 100 CALM      30.29S
ROGERS AR      CLOUDY    27  26  96 MISG      30.25R
SILOAM SPRINGS CLOUDY    27  19  74 CALM      30.26R
HARRISON AR    CLOUDY    28  23  81 NW5       30.23R WCI  23
NEAR YELLVILLE CLOUDY    30  23  74 NW3       30.25R

......KANSAS AND MISSOURI......

CITY           SKY/WX    TMP DP  RH WIND       PRES   REMARKS
KANSAS CTY INT MOSUNNY   23  19  85 S8        30.22R WCI  14
DOWNTOWN KC    SUNNY     24  19  81 SW6       30.26R WCI  17
COLUMBIA       PTSUNNY   27  23  85 CALM      30.25R
SEDALIA        CLOUDY    24  20  84 SW3       30.26R
ST JOSEPH      SUNNY     20  18  92 S6        30.23R WCI  12
ST LOUIS       CLOUDY    32  24  72 NW6       30.25S WCI  26
SPIRIT OF STL  CLOUDY    31  24  75 NW3       30.26R
KIRKSVILLE     MOSUNNY   21  20  96 SW5       30.23R WCI  15
WICHITA        MOSUNNY   22  18  85 CALM      30.22R
TOPEKA         SUNNY     22  17  81 S3        30.24S
OLATHE         SUNNY     21  20  96 S7        30.24R WCI  12

......TENNESSEE......

CITY           SKY/WX    TMP DP  RH WIND       PRES   REMARKS
MEMPHIS        CLOUDY    40  36  86 NE10      30.20R WCI  33
NASHVILLE      LGT RAIN  41  39  93 N7        30.18R

......ARKANSAS.......

CITY           SKY/WX    TMP DP  RH WIND       PRES   REMARKS
FAYETTEVILLE   CLOUDY    28  26  92 CALM      30.24R
FT SMITH       CLOUDY    33  27  78 W3        30.27F
LITTLE ROCK    CLOUDY    37  31  78 N8        30.26R WCI  31

......OKLAHOMA.......

CITY           SKY/WX    TMP DP  RH WIND       PRES   REMARKS
TULSA          MOSUNNY   25  19  78 CALM      30.30R
PONCA CITY     SUNNY     23  19  85 CALM      30.27R
MCALESTER      CLOUDY    31  25  78 N3        30.28R
OKLAHOMA CITY  MOSUNNY   21  18  88 CALM      30.25R

......IOWA............

CITY           SKY/WX    TMP DP  RH WIND       PRES   REMARKS
DES MOINES     MOSUNNY   19  15  84 S5        30.16R WCI  12
QUAD CITIES    SUNNY     20  16  84 SW5       30.22R WCI  13

......ILLINOIS........

CITY           SKY/WX    TMP DP  RH WIND       PRES   REMARKS
QUINCY         PTSUNNY   27  22  81 W6        30.24R WCI  20
CHICAGO        PTSUNNY   23  17  78 W6        30.17R WCI  16



USA.gov is the U.S. government's official web portal to all federal, state and local government web resources and services.